owner,sensor,date,latitude,longitude,vertical_datum,sea_water_practical_salinity,qcFlag 
TABS,ioos:station:wmo:42051:1,2017-11-01T00:00:00Z,29.6350,-93.6417,2.0,28.3762,11111222 
TABS,ioos:station:wmo:42051:1,2017-11-01T00:30:00Z,29.6350,-93.6417,2.0,28.3807,11111222 
TABS,ioos:station:wmo:42051:1,2017-11-01T01:00:00Z,29.6350,-93.6417,2.0,28.3799,11111222 
TABS,ioos:station:wmo:42051:1,2017-11-01T01:30:00Z,29.6350,-93.6417,2.0,28.3831,11111222 
TABS,ioos:station:wmo:42051:1,2017-11-01T02:00:00Z,29.6350,-93.6417,2.0,28.3797,11111222 
TABS,ioos:station:wmo:42051:1,2017-11-01T02:30:00Z,29.6350,-93.6417,2.0,28.3727,11111222 
TABS,ioos:station:wmo:42051:1,2017-11-01T03:00:00Z,29.6350,-93.6417,2.0,28.3649,11111222 
TABS,ioos:station:wmo:42051:1,2017-11-01T03:30:00Z,29.6350,-93.6417,2.0,28.3613,11111222 
TABS,ioos:station:wmo:42051:1,2017-11-01T04:00:00Z,29.6350,-93.6417,2.0,28.3547,11111222 
TABS,ioos:station:wmo:42051:1,2017-11-01T04:30:00Z,29.6350,-93.6417,2.0,28.3414,11111222 
TABS,ioos:station:wmo:42051:1,2017-11-01T05:00:00Z,29.6350,-93.6417,2.0,28.3288,11111222 
TABS,ioos:station:wmo:42051:1,2017-11-01T05:30:00Z,29.6350,-93.6417,2.0,28.3254,11111222 
TABS,ioos:station:wmo:42051:1,2017-11-01T06:00:00Z,29.6350,-93.6417,2.0,28.3226,11111222 
TABS,ioos:station:wmo:42051:1,2017-11-01T06:30:00Z,29.6350,-93.6417,2.0,28.3329,11111222 
TABS,ioos:station:wmo:42051:1,2017-11-01T07:00:00Z,29.6350,-93.6417,2.0,28.3297,11111222 
TABS,ioos:station:wmo:42051:1,2017-11-01T07:30:00Z,29.6350,-93.6417,2.0,28.3083,11111222 
TABS,ioos:station:wmo:42051:1,2017-11-01T08:00:00Z,29.6350,-93.6417,2.0,28.2799,11111222 
TABS,ioos:station:wmo:42051:1,2017-11-01T08:30:00Z,29.6350,-93.6417,2.0,28.2598,11111222 
TABS,ioos:station:wmo:42051:1,2017-11-01T09:00:00Z,29.6350,-93.6417,2.0,28.13,11111222 
TABS,ioos:station:wmo:42051:1,2017-11-01T09:30:00Z,29.6350,-93.6417,2.0,28.1159,11111222 
TABS,ioos:station:wmo:42051:1,2017-11-01T10:00:00Z,29.6350,-93.6417,2.0,27.9711,11111222 
TABS,ioos:station:wmo:42051:1,2017-11-01T10:30:00Z,29.6350,-93.6417,2.0,27.9334,11111222 
TABS,ioos:station:wmo:42051:1,2017-11-01T11:00:00Z,29.6350,-93.6417,2.0,27.9164,11111222 
TABS,ioos:station:wmo:42051:1,2017-11-01T11:30:00Z,29.6350,-93.6417,2.0,27.8969,11111222 
TABS,ioos:station:wmo:42051:1,2017-11-01T12:00:00Z,29.6350,-93.6417,2.0,27.8701,11111222 
TABS,ioos:station:wmo:42051:1,2017-11-01T12:30:00Z,29.6350,-93.6417,2.0,27.8495,11111222 
TABS,ioos:station:wmo:42051:1,2017-11-01T13:00:00Z,29.6350,-93.6417,2.0,27.8372,11111222 
TABS,ioos:station:wmo:42051:1,2017-11-01T13:30:00Z,29.6350,-93.6417,2.0,27.8328,11111222 
TABS,ioos:station:wmo:42051:1,2017-11-01T14:00:00Z,29.6350,-93.6417,2.0,27.8302,11111222 
TABS,ioos:station:wmo:42051:1,2017-11-01T14:30:00Z,29.6350,-93.6417,2.0,27.8285,11111222 
TABS,ioos:station:wmo:42051:1,2017-11-01T15:00:00Z,29.6350,-93.6417,2.0,27.815,11111222 
TABS,ioos:station:wmo:42051:1,2017-11-01T15:30:00Z,29.6350,-93.6417,2.0,27.8105,11111222 
TABS,ioos:station:wmo:42051:1,2017-11-01T16:00:00Z,29.6350,-93.6417,2.0,27.7809,11111222 
TABS,ioos:station:wmo:42051:1,2017-11-01T16:30:00Z,29.6350,-93.6417,2.0,27.7731,11111222 
TABS,ioos:station:wmo:42051:1,2017-11-01T17:00:00Z,29.6350,-93.6417,2.0,27.759,11111222 
TABS,ioos:station:wmo:42051:1,2017-11-01T17:30:00Z,29.6350,-93.6417,2.0,27.7683,11111222 
TABS,ioos:station:wmo:42051:1,2017-11-01T18:00:00Z,29.6350,-93.6417,2.0,27.7724,11111222 
TABS,ioos:station:wmo:42051:1,2017-11-01T18:30:00Z,29.6350,-93.6417,2.0,27.7666,11111222 
TABS,ioos:station:wmo:42051:1,2017-11-01T19:00:00Z,29.6350,-93.6417,2.0,27.756,11111222 
TABS,ioos:station:wmo:42051:1,2017-11-01T19:30:00Z,29.6350,-93.6417,2.0,27.751,11111222 
TABS,ioos:station:wmo:42051:1,2017-11-01T20:00:00Z,29.6350,-93.6417,2.0,27.7476,11111222 
TABS,ioos:station:wmo:42051:1,2017-11-01T20:30:00Z,29.6350,-93.6417,2.0,27.7418,11111222 
TABS,ioos:station:wmo:42051:1,2017-11-01T21:00:00Z,29.6350,-93.6417,2.0,27.7412,11111222 
TABS,ioos:station:wmo:42051:1,2017-11-01T21:30:00Z,29.6350,-93.6417,2.0,27.7463,11111222 
TABS,ioos:station:wmo:42051:1,2017-11-01T22:00:00Z,29.6350,-93.6417,2.0,27.7432,11111222 
TABS,ioos:station:wmo:42051:1,2017-11-01T22:30:00Z,29.6350,-93.6417,2.0,27.7442,11111222 
TABS,ioos:station:wmo:42051:1,2017-11-01T23:00:00Z,29.6350,-93.6417,2.0,27.7491,11111222 
TABS,ioos:station:wmo:42051:1,2017-11-01T23:30:00Z,29.6350,-93.6417,2.0,27.7508,11111222 
TABS,ioos:station:wmo:42051:1,2017-11-02T00:00:00Z,29.6350,-93.6417,2.0,27.7415,11111222 
TABS,ioos:station:wmo:42051:1,2017-11-02T00:30:00Z,29.6350,-93.6417,2.0,27.7443,11111222 
TABS,ioos:station:wmo:42051:1,2017-11-02T01:00:00Z,29.6350,-93.6417,2.0,27.6657,11111222 
TABS,ioos:station:wmo:42051:1,2017-11-02T01:30:00Z,29.6350,-93.6417,2.0,27.6611,11111222 
TABS,ioos:station:wmo:42051:1,2017-11-02T02:00:00Z,29.6350,-93.6417,2.0,27.7076,11111222 
TABS,ioos:station:wmo:42051:1,2017-11-02T02:30:00Z,29.6350,-93.6417,2.0,27.7398,11111222 
TABS,ioos:station:wmo:42051:1,2017-11-02T03:00:00Z,29.6350,-93.6417,2.0,27.7147,11111222 
TABS,ioos:station:wmo:42051:1,2017-11-02T03:30:00Z,29.6350,-93.6417,2.0,27.6893,11111222 
TABS,ioos:station:wmo:42051:1,2017-11-02T04:00:00Z,29.6350,-93.6417,2.0,27.6856,11111222 
TABS,ioos:station:wmo:42051:1,2017-11-02T04:30:00Z,29.6350,-93.6417,2.0,27.6907,11111222 
TABS,ioos:station:wmo:42051:1,2017-11-02T05:00:00Z,29.6350,-93.6417,2.0,27.6879,11111222 
TABS,ioos:station:wmo:42051:1,2017-11-02T05:30:00Z,29.6350,-93.6417,2.0,27.6961,11111222 
TABS,ioos:station:wmo:42051:1,2017-11-02T06:00:00Z,29.6350,-93.6417,2.0,27.7083,11111222 
TABS,ioos:station:wmo:42051:1,2017-11-02T06:30:00Z,29.6350,-93.6417,2.0,27.7317,11111222 
TABS,ioos:station:wmo:42051:1,2017-11-02T07:00:00Z,29.6350,-93.6417,2.0,27.7762,11111222 
TABS,ioos:station:wmo:42051:1,2017-11-02T07:30:00Z,29.6350,-93.6417,2.0,27.8332,11111222 
TABS,ioos:station:wmo:42051:1,2017-11-02T08:00:00Z,29.6350,-93.6417,2.0,27.8577,11111222 
TABS,ioos:station:wmo:42051:1,2017-11-02T08:30:00Z,29.6350,-93.6417,2.0,27.8618,11111222 
TABS,ioos:station:wmo:42051:1,2017-11-02T09:00:00Z,29.6350,-93.6417,2.0,27.8828,11111222 
TABS,ioos:station:wmo:42051:1,2017-11-02T09:30:00Z,29.6350,-93.6417,2.0,27.9011,11111222 
TABS,ioos:station:wmo:42051:1,2017-11-02T10:00:00Z,29.6350,-93.6417,2.0,27.9326,11111222 
TABS,ioos:station:wmo:42051:1,2017-11-02T10:30:00Z,29.6350,-93.6417,2.0,27.9934,11111222 
TABS,ioos:station:wmo:42051:1,2017-11-02T11:00:00Z,29.6350,-93.6417,2.0,28.049,11111222 
TABS,ioos:station:wmo:42051:1,2017-11-02T11:30:00Z,29.6350,-93.6417,2.0,28.0632,11111222 
TABS,ioos:station:wmo:42051:1,2017-11-02T12:00:00Z,29.6350,-93.6417,2.0,28.0182,11111222 
TABS,ioos:station:wmo:42051:1,2017-11-02T12:30:00Z,29.6350,-93.6417,2.0,27.9841,11111222 
TABS,ioos:station:wmo:42051:1,2017-11-02T13:00:00Z,29.6350,-93.6417,2.0,27.9613,11111222 
TABS,ioos:station:wmo:42051:1,2017-11-02T13:30:00Z,29.6350,-93.6417,2.0,27.9705,11111222 
TABS,ioos:station:wmo:42051:1,2017-11-02T14:00:00Z,29.6350,-93.6417,2.0,27.9826,11111222 
TABS,ioos:station:wmo:42051:1,2017-11-02T14:30:00Z,29.6350,-93.6417,2.0,28.0249,11111222 
TABS,ioos:station:wmo:42051:1,2017-11-02T15:00:00Z,29.6350,-93.6417,2.0,28.0067,11111222 
TABS,ioos:station:wmo:42051:1,2017-11-02T15:30:00Z,29.6350,-93.6417,2.0,27.9633,11111222 
TABS,ioos:station:wmo:42051:1,2017-11-02T16:00:00Z,29.6350,-93.6417,2.0,27.9534,11111222 
TABS,ioos:station:wmo:42051:1,2017-11-02T16:30:00Z,29.6350,-93.6417,2.0,27.9378,11111222 
TABS,ioos:station:wmo:42051:1,2017-11-02T17:00:00Z,29.6350,-93.6417,2.0,28.015,11111222 
TABS,ioos:station:wmo:42051:1,2017-11-02T17:30:00Z,29.6350,-93.6417,2.0,28.0337,11111222 
TABS,ioos:station:wmo:42051:1,2017-11-02T18:00:00Z,29.6350,-93.6417,2.0,28.1,11111222 
TABS,ioos:station:wmo:42051:1,2017-11-02T18:30:00Z,29.6350,-93.6417,2.0,28.2287,11111222 
TABS,ioos:station:wmo:42051:1,2017-11-02T19:00:00Z,29.6350,-93.6417,2.0,28.2609,11111222 
TABS,ioos:station:wmo:42051:1,2017-11-02T19:30:00Z,29.6350,-93.6417,2.0,28.3878,11111222 
TABS,ioos:station:wmo:42051:1,2017-11-02T20:00:00Z,29.6350,-93.6417,2.0,28.4026,11111222 
TABS,ioos:station:wmo:42051:1,2017-11-02T20:30:00Z,29.6350,-93.6417,2.0,28.5912,11111222 
TABS,ioos:station:wmo:42051:1,2017-11-02T21:00:00Z,29.6350,-93.6417,2.0,28.5691,11111222 
TABS,ioos:station:wmo:42051:1,2017-11-02T21:30:00Z,29.6350,-93.6417,2.0,28.5165,11111222 
TABS,ioos:station:wmo:42051:1,2017-11-02T22:00:00Z,29.6350,-93.6417,2.0,28.5844,11111222 
TABS,ioos:station:wmo:42051:1,2017-11-02T22:30:00Z,29.6350,-93.6417,2.0,28.6151,11111222 
TABS,ioos:station:wmo:42051:1,2017-11-02T23:00:00Z,29.6350,-93.6417,2.0,28.6843,11111222 
TABS,ioos:station:wmo:42051:1,2017-11-02T23:30:00Z,29.6350,-93.6417,2.0,28.7835,11111222 
TABS,ioos:station:wmo:42051:1,2017-11-03T00:00:00Z,29.6350,-93.6417,2.0,29.0679,11111222 
TABS,ioos:station:wmo:42051:1,2017-11-03T00:30:00Z,29.6350,-93.6417,2.0,29.3212,11111222 
TABS,ioos:station:wmo:42051:1,2017-11-03T01:00:00Z,29.6350,-93.6417,2.0,29.3257,11111222 
TABS,ioos:station:wmo:42051:1,2017-11-03T01:30:00Z,29.6350,-93.6417,2.0,29.2933,11111222 
TABS,ioos:station:wmo:42051:1,2017-11-03T02:00:00Z,29.6350,-93.6417,2.0,29.2404,11111222 
TABS,ioos:station:wmo:42051:1,2017-11-03T02:30:00Z,29.6350,-93.6417,2.0,29.2007,11111222 
TABS,ioos:station:wmo:42051:1,2017-11-03T03:00:00Z,29.6350,-93.6417,2.0,29.1483,11111222 
TABS,ioos:station:wmo:42051:1,2017-11-03T03:30:00Z,29.6350,-93.6417,2.0,29.1112,11111222 
TABS,ioos:station:wmo:42051:1,2017-11-03T04:00:00Z,29.6350,-93.6417,2.0,29.0771,11111222 
TABS,ioos:station:wmo:42051:1,2017-11-03T04:30:00Z,29.6350,-93.6417,2.0,29.0371,11111222 
TABS,ioos:station:wmo:42051:1,2017-11-03T05:00:00Z,29.6350,-93.6417,2.0,29.0043,11111222 
TABS,ioos:station:wmo:42051:1,2017-11-03T05:30:00Z,29.6350,-93.6417,2.0,28.9623,11111222 
TABS,ioos:station:wmo:42051:1,2017-11-03T06:00:00Z,29.6350,-93.6417,2.0,28.9721,11111222 
TABS,ioos:station:wmo:42051:1,2017-11-03T06:30:00Z,29.6350,-93.6417,2.0,28.9651,11111222 
TABS,ioos:station:wmo:42051:1,2017-11-03T07:00:00Z,29.6350,-93.6417,2.0,28.9827,11111222 
TABS,ioos:station:wmo:42051:1,2017-11-03T07:30:00Z,29.6350,-93.6417,2.0,29.0165,11111222 
TABS,ioos:station:wmo:42051:1,2017-11-03T08:00:00Z,29.6350,-93.6417,2.0,29.0723,11111222 
TABS,ioos:station:wmo:42051:1,2017-11-03T08:30:00Z,29.6350,-93.6417,2.0,29.1008,11111222 
TABS,ioos:station:wmo:42051:1,2017-11-03T09:00:00Z,29.6350,-93.6417,2.0,29.1161,11111222 
TABS,ioos:station:wmo:42051:1,2017-11-03T09:30:00Z,29.6350,-93.6417,2.0,29.0568,11111222 
TABS,ioos:station:wmo:42051:1,2017-11-03T10:00:00Z,29.6350,-93.6417,2.0,28.9997,11111222 
TABS,ioos:station:wmo:42051:1,2017-11-03T10:30:00Z,29.6350,-93.6417,2.0,28.8044,11111222 
TABS,ioos:station:wmo:42051:1,2017-11-03T11:00:00Z,29.6350,-93.6417,2.0,28.7941,11111222 
TABS,ioos:station:wmo:42051:1,2017-11-03T11:30:00Z,29.6350,-93.6417,2.0,28.8122,11111222 
TABS,ioos:station:wmo:42051:1,2017-11-03T12:00:00Z,29.6350,-93.6417,2.0,28.8657,11111222 
TABS,ioos:station:wmo:42051:1,2017-11-03T12:30:00Z,29.6350,-93.6417,2.0,28.6943,11111222 
TABS,ioos:station:wmo:42051:1,2017-11-03T13:00:00Z,29.6350,-93.6417,2.0,28.5006,11111222 
TABS,ioos:station:wmo:42051:1,2017-11-03T13:30:00Z,29.6350,-93.6417,2.0,28.4981,11111222 
TABS,ioos:station:wmo:42051:1,2017-11-03T14:00:00Z,29.6350,-93.6417,2.0,28.4275,11111222 
TABS,ioos:station:wmo:42051:1,2017-11-03T14:30:00Z,29.6350,-93.6417,2.0,28.4108,11111222 
TABS,ioos:station:wmo:42051:1,2017-11-03T15:00:00Z,29.6350,-93.6417,2.0,28.3806,11111222 
TABS,ioos:station:wmo:42051:1,2017-11-03T15:30:00Z,29.6350,-93.6417,2.0,28.3474,11111222 
TABS,ioos:station:wmo:42051:1,2017-11-03T16:00:00Z,29.6350,-93.6417,2.0,28.3108,11111222 
TABS,ioos:station:wmo:42051:1,2017-11-03T16:30:00Z,29.6350,-93.6417,2.0,28.3255,11111222 
TABS,ioos:station:wmo:42051:1,2017-11-03T17:00:00Z,29.6350,-93.6417,2.0,28.3169,11111222 
TABS,ioos:station:wmo:42051:1,2017-11-03T17:30:00Z,29.6350,-93.6417,2.0,28.2341,11111222 
TABS,ioos:station:wmo:42051:1,2017-11-03T18:00:00Z,29.6350,-93.6417,2.0,28.2621,11111222 
TABS,ioos:station:wmo:42051:1,2017-11-03T18:30:00Z,29.6350,-93.6417,2.0,28.2316,11111222 
TABS,ioos:station:wmo:42051:1,2017-11-03T19:00:00Z,29.6350,-93.6417,2.0,28.2431,11111222 
TABS,ioos:station:wmo:42051:1,2017-11-03T19:30:00Z,29.6350,-93.6417,2.0,28.242,11111222 
TABS,ioos:station:wmo:42051:1,2017-11-03T20:00:00Z,29.6350,-93.6417,2.0,28.2043,11111222 
TABS,ioos:station:wmo:42051:1,2017-11-03T20:30:00Z,29.6350,-93.6417,2.0,28.2133,11111222 
TABS,ioos:station:wmo:42051:1,2017-11-03T21:00:00Z,29.6350,-93.6417,2.0,28.2625,11111222 
TABS,ioos:station:wmo:42051:1,2017-11-03T21:30:00Z,29.6350,-93.6417,2.0,28.33,11111222 
TABS,ioos:station:wmo:42051:1,2017-11-03T22:00:00Z,29.6350,-93.6417,2.0,28.3439,11111222 
TABS,ioos:station:wmo:42051:1,2017-11-03T22:30:00Z,29.6350,-93.6417,2.0,28.3725,11111222 
TABS,ioos:station:wmo:42051:1,2017-11-03T23:00:00Z,29.6350,-93.6417,2.0,28.4599,11111222 
TABS,ioos:station:wmo:42051:1,2017-11-03T23:30:00Z,29.6350,-93.6417,2.0,28.4543,11111222 
TABS,ioos:station:wmo:42051:1,2017-11-04T00:00:00Z,29.6350,-93.6417,2.0,28.5107,11111222 
TABS,ioos:station:wmo:42051:1,2017-11-04T00:30:00Z,29.6350,-93.6417,2.0,28.5103,11111222 
TABS,ioos:station:wmo:42051:1,2017-11-04T01:00:00Z,29.6350,-93.6417,2.0,28.5388,11111222 
TABS,ioos:station:wmo:42051:1,2017-11-04T01:30:00Z,29.6350,-93.6417,2.0,28.5191,11111222 
TABS,ioos:station:wmo:42051:1,2017-11-04T02:00:00Z,29.6350,-93.6417,2.0,28.5262,11111222 
TABS,ioos:station:wmo:42051:1,2017-11-04T02:30:00Z,29.6350,-93.6417,2.0,28.5363,11111222 
TABS,ioos:station:wmo:42051:1,2017-11-04T03:00:00Z,29.6350,-93.6417,2.0,28.5501,11111222 
TABS,ioos:station:wmo:42051:1,2017-11-04T03:30:00Z,29.6350,-93.6417,2.0,28.5638,11111222 
TABS,ioos:station:wmo:42051:1,2017-11-04T04:00:00Z,29.6350,-93.6417,2.0,28.5456,11111222 
TABS,ioos:station:wmo:42051:1,2017-11-04T04:30:00Z,29.6350,-93.6417,2.0,28.5478,11111222 
TABS,ioos:station:wmo:42051:1,2017-11-04T05:00:00Z,29.6350,-93.6417,2.0,28.5432,11111222 
TABS,ioos:station:wmo:42051:1,2017-11-04T05:30:00Z,29.6350,-93.6417,2.0,28.528,11111222 
TABS,ioos:station:wmo:42051:1,2017-11-04T06:00:00Z,29.6350,-93.6417,2.0,28.5338,11111222 
TABS,ioos:station:wmo:42051:1,2017-11-04T06:30:00Z,29.6350,-93.6417,2.0,28.5288,11111222 
TABS,ioos:station:wmo:42051:1,2017-11-04T07:00:00Z,29.6350,-93.6417,2.0,28.5265,11111222 
TABS,ioos:station:wmo:42051:1,2017-11-04T07:30:00Z,29.6350,-93.6417,2.0,28.4782,11111222 
TABS,ioos:station:wmo:42051:1,2017-11-04T08:00:00Z,29.6350,-93.6417,2.0,28.403,11111222 
TABS,ioos:station:wmo:42051:1,2017-11-04T08:30:00Z,29.6350,-93.6417,2.0,28.4129,11111222 
TABS,ioos:station:wmo:42051:1,2017-11-04T09:00:00Z,29.6350,-93.6417,2.0,28.437,11111222 
TABS,ioos:station:wmo:42051:1,2017-11-04T09:30:00Z,29.6350,-93.6417,2.0,28.4623,11111222 
TABS,ioos:station:wmo:42051:1,2017-11-04T10:00:00Z,29.6350,-93.6417,2.0,28.4839,11111222 
TABS,ioos:station:wmo:42051:1,2017-11-04T10:30:00Z,29.6350,-93.6417,2.0,28.4006,11111222 
TABS,ioos:station:wmo:42051:1,2017-11-04T11:00:00Z,29.6350,-93.6417,2.0,28.1443,11111222 
TABS,ioos:station:wmo:42051:1,2017-11-04T11:30:00Z,29.6350,-93.6417,2.0,28.2336,11111222 
TABS,ioos:station:wmo:42051:1,2017-11-04T12:00:00Z,29.6350,-93.6417,2.0,28.1381,11111222 
TABS,ioos:station:wmo:42051:1,2017-11-04T12:30:00Z,29.6350,-93.6417,2.0,28.4565,11111222 
TABS,ioos:station:wmo:42051:1,2017-11-04T13:00:00Z,29.6350,-93.6417,2.0,28.3827,11111222 
TABS,ioos:station:wmo:42051:1,2017-11-04T13:30:00Z,29.6350,-93.6417,2.0,28.5206,11111222 
TABS,ioos:station:wmo:42051:1,2017-11-04T14:00:00Z,29.6350,-93.6417,2.0,28.5554,11111222 
TABS,ioos:station:wmo:42051:1,2017-11-04T14:30:00Z,29.6350,-93.6417,2.0,28.5816,11111222 
TABS,ioos:station:wmo:42051:1,2017-11-04T15:00:00Z,29.6350,-93.6417,2.0,28.3498,11111222 
TABS,ioos:station:wmo:42051:1,2017-11-04T15:30:00Z,29.6350,-93.6417,2.0,28.3522,11111222 
TABS,ioos:station:wmo:42051:1,2017-11-04T16:00:00Z,29.6350,-93.6417,2.0,28.3465,11111222 
TABS,ioos:station:wmo:42051:1,2017-11-04T16:30:00Z,29.6350,-93.6417,2.0,28.3656,11111222 
TABS,ioos:station:wmo:42051:1,2017-11-04T17:30:00Z,29.6350,-93.6417,2.0,28.4905,11111222 
TABS,ioos:station:wmo:42051:1,2017-11-04T18:00:00Z,29.6350,-93.6417,2.0,28.5576,11111222 
TABS,ioos:station:wmo:42051:1,2017-11-04T18:30:00Z,29.6350,-93.6417,2.0,28.7153,11111222 
TABS,ioos:station:wmo:42051:1,2017-11-04T19:00:00Z,29.6350,-93.6417,2.0,28.8133,11111222 
TABS,ioos:station:wmo:42051:1,2017-11-04T19:30:00Z,29.6350,-93.6417,2.0,28.9162,11111222 
TABS,ioos:station:wmo:42051:1,2017-11-04T20:00:00Z,29.6350,-93.6417,2.0,28.958,11111222 
TABS,ioos:station:wmo:42051:1,2017-11-04T20:30:00Z,29.6350,-93.6417,2.0,29.0041,11111222 
TABS,ioos:station:wmo:42051:1,2017-11-04T21:00:00Z,29.6350,-93.6417,2.0,29.0686,11111222 
TABS,ioos:station:wmo:42051:1,2017-11-04T21:30:00Z,29.6350,-93.6417,2.0,29.1165,11111222 
TABS,ioos:station:wmo:42051:1,2017-11-04T22:00:00Z,29.6350,-93.6417,2.0,29.1461,11111222 
TABS,ioos:station:wmo:42051:1,2017-11-04T22:30:00Z,29.6350,-93.6417,2.0,29.1848,11111222 
TABS,ioos:station:wmo:42051:1,2017-11-04T23:00:00Z,29.6350,-93.6417,2.0,29.1995,11111222 
TABS,ioos:station:wmo:42051:1,2017-11-04T23:30:00Z,29.6350,-93.6417,2.0,29.2097,11111222 
TABS,ioos:station:wmo:42051:1,2017-11-05T00:00:00Z,29.6350,-93.6417,2.0,29.2409,11111222 
TABS,ioos:station:wmo:42051:1,2017-11-05T00:30:00Z,29.6350,-93.6417,2.0,29.236,11111222 
TABS,ioos:station:wmo:42051:1,2017-11-05T01:00:00Z,29.6350,-93.6417,2.0,29.2699,11111222 
TABS,ioos:station:wmo:42051:1,2017-11-05T01:30:00Z,29.6350,-93.6417,2.0,29.3021,11111222 
TABS,ioos:station:wmo:42051:1,2017-11-05T02:00:00Z,29.6350,-93.6417,2.0,29.4031,11111222 
TABS,ioos:station:wmo:42051:1,2017-11-05T02:30:00Z,29.6350,-93.6417,2.0,29.5779,11111222 
TABS,ioos:station:wmo:42051:1,2017-11-05T03:00:00Z,29.6350,-93.6417,2.0,29.6489,11111222 
TABS,ioos:station:wmo:42051:1,2017-11-05T03:30:00Z,29.6350,-93.6417,2.0,29.7148,11111222 
TABS,ioos:station:wmo:42051:1,2017-11-05T04:00:00Z,29.6350,-93.6417,2.0,29.7141,11111222 
TABS,ioos:station:wmo:42051:1,2017-11-05T04:30:00Z,29.6350,-93.6417,2.0,29.7504,11111222 
TABS,ioos:station:wmo:42051:1,2017-11-05T05:00:00Z,29.6350,-93.6417,2.0,29.7495,11111222 
TABS,ioos:station:wmo:42051:1,2017-11-05T05:30:00Z,29.6350,-93.6417,2.0,29.7417,11111222 
TABS,ioos:station:wmo:42051:1,2017-11-05T06:00:00Z,29.6350,-93.6417,2.0,29.7327,11111222 
TABS,ioos:station:wmo:42051:1,2017-11-05T06:30:00Z,29.6350,-93.6417,2.0,29.7079,11111222 
TABS,ioos:station:wmo:42051:1,2017-11-05T07:00:00Z,29.6350,-93.6417,2.0,29.703,11111222 
TABS,ioos:station:wmo:42051:1,2017-11-05T07:30:00Z,29.6350,-93.6417,2.0,29.6776,11111222 
TABS,ioos:station:wmo:42051:1,2017-11-05T08:00:00Z,29.6350,-93.6417,2.0,29.6529,11111222 
TABS,ioos:station:wmo:42051:1,2017-11-05T08:30:00Z,29.6350,-93.6417,2.0,29.6434,11111222 
TABS,ioos:station:wmo:42051:1,2017-11-05T09:00:00Z,29.6350,-93.6417,2.0,29.6131,11111222 
TABS,ioos:station:wmo:42051:1,2017-11-05T09:30:00Z,29.6350,-93.6417,2.0,29.6039,11111222 
TABS,ioos:station:wmo:42051:1,2017-11-05T10:00:00Z,29.6350,-93.6417,2.0,29.5891,11111222 
TABS,ioos:station:wmo:42051:1,2017-11-05T10:30:00Z,29.6350,-93.6417,2.0,29.5874,11111222 
TABS,ioos:station:wmo:42051:1,2017-11-05T11:00:00Z,29.6350,-93.6417,2.0,29.5814,11111222 
TABS,ioos:station:wmo:42051:1,2017-11-05T11:30:00Z,29.6350,-93.6417,2.0,29.5775,11111222 
TABS,ioos:station:wmo:42051:1,2017-11-05T12:00:00Z,29.6350,-93.6417,2.0,29.2509,11111222 
TABS,ioos:station:wmo:42051:1,2017-11-05T12:30:00Z,29.6350,-93.6417,2.0,28.9599,11111222 
TABS,ioos:station:wmo:42051:1,2017-11-05T13:00:00Z,29.6350,-93.6417,2.0,28.7852,11111222 
TABS,ioos:station:wmo:42051:1,2017-11-05T13:30:00Z,29.6350,-93.6417,2.0,28.5554,11111222 
TABS,ioos:station:wmo:42051:1,2017-11-05T14:00:00Z,29.6350,-93.6417,2.0,28.4639,11111222 
TABS,ioos:station:wmo:42051:1,2017-11-05T14:30:00Z,29.6350,-93.6417,2.0,28.4195,11111222 
TABS,ioos:station:wmo:42051:1,2017-11-05T15:00:00Z,29.6350,-93.6417,2.0,28.4203,11111222 
TABS,ioos:station:wmo:42051:1,2017-11-05T15:30:00Z,29.6350,-93.6417,2.0,28.4221,11111222 
TABS,ioos:station:wmo:42051:1,2017-11-05T16:00:00Z,29.6350,-93.6417,2.0,28.3779,11111222 
TABS,ioos:station:wmo:42051:1,2017-11-05T16:30:00Z,29.6350,-93.6417,2.0,28.3546,11111222 
TABS,ioos:station:wmo:42051:1,2017-11-05T17:00:00Z,29.6350,-93.6417,2.0,28.3883,11111222 
TABS,ioos:station:wmo:42051:1,2017-11-05T17:30:00Z,29.6350,-93.6417,2.0,28.4418,11111222 
TABS,ioos:station:wmo:42051:1,2017-11-05T18:00:00Z,29.6350,-93.6417,2.0,28.5391,11111222 
TABS,ioos:station:wmo:42051:1,2017-11-05T18:30:00Z,29.6350,-93.6417,2.0,28.6384,11111222 
TABS,ioos:station:wmo:42051:1,2017-11-05T19:00:00Z,29.6350,-93.6417,2.0,29.2521,11111222 
TABS,ioos:station:wmo:42051:1,2017-11-05T19:30:00Z,29.6350,-93.6417,2.0,29.4339,11111222 
TABS,ioos:station:wmo:42051:1,2017-11-05T20:00:00Z,29.6350,-93.6417,2.0,29.4079,11111222 
TABS,ioos:station:wmo:42051:1,2017-11-05T20:30:00Z,29.6350,-93.6417,2.0,29.3763,11111222 
TABS,ioos:station:wmo:42051:1,2017-11-05T21:00:00Z,29.6350,-93.6417,2.0,29.3533,11111222 
TABS,ioos:station:wmo:42051:1,2017-11-05T21:30:00Z,29.6350,-93.6417,2.0,29.3372,11111222 
TABS,ioos:station:wmo:42051:1,2017-11-05T22:00:00Z,29.6350,-93.6417,2.0,29.3302,11111222 
TABS,ioos:station:wmo:42051:1,2017-11-05T22:30:00Z,29.6350,-93.6417,2.0,29.3157,11111222 
TABS,ioos:station:wmo:42051:1,2017-11-05T23:00:00Z,29.6350,-93.6417,2.0,29.3038,11111222 
TABS,ioos:station:wmo:42051:1,2017-11-05T23:30:00Z,29.6350,-93.6417,2.0,29.2993,11111222 
TABS,ioos:station:wmo:42051:1,2017-11-06T00:00:00Z,29.6350,-93.6417,2.0,29.2973,11111222 
TABS,ioos:station:wmo:42051:1,2017-11-06T00:30:00Z,29.6350,-93.6417,2.0,29.2992,11111222 
TABS,ioos:station:wmo:42051:1,2017-11-06T01:00:00Z,29.6350,-93.6417,2.0,29.3038,11111222 
TABS,ioos:station:wmo:42051:1,2017-11-06T01:30:00Z,29.6350,-93.6417,2.0,29.3097,11111222 
TABS,ioos:station:wmo:42051:1,2017-11-06T02:00:00Z,29.6350,-93.6417,2.0,29.3099,11111222 
TABS,ioos:station:wmo:42051:1,2017-11-06T02:30:00Z,29.6350,-93.6417,2.0,29.3125,11111222 
TABS,ioos:station:wmo:42051:1,2017-11-06T03:00:00Z,29.6350,-93.6417,2.0,29.3163,11111222 
TABS,ioos:station:wmo:42051:1,2017-11-06T03:30:00Z,29.6350,-93.6417,2.0,29.3218,11111222 
TABS,ioos:station:wmo:42051:1,2017-11-06T04:00:00Z,29.6350,-93.6417,2.0,29.3242,11111222 
TABS,ioos:station:wmo:42051:1,2017-11-06T04:30:00Z,29.6350,-93.6417,2.0,29.3295,11111222 
TABS,ioos:station:wmo:42051:1,2017-11-06T05:00:00Z,29.6350,-93.6417,2.0,29.3356,11111222 
TABS,ioos:station:wmo:42051:1,2017-11-06T05:30:00Z,29.6350,-93.6417,2.0,29.3357,11111222 
TABS,ioos:station:wmo:42051:1,2017-11-06T06:00:00Z,29.6350,-93.6417,2.0,29.3368,11111222 
TABS,ioos:station:wmo:42051:1,2017-11-06T06:30:00Z,29.6350,-93.6417,2.0,29.3164,11111222 
TABS,ioos:station:wmo:42051:1,2017-11-06T07:00:00Z,29.6350,-93.6417,2.0,29.3186,11111222 
TABS,ioos:station:wmo:42051:1,2017-11-06T07:30:00Z,29.6350,-93.6417,2.0,29.3185,11111222 
TABS,ioos:station:wmo:42051:1,2017-11-06T08:00:00Z,29.6350,-93.6417,2.0,29.3236,11111222 
TABS,ioos:station:wmo:42051:1,2017-11-06T08:30:00Z,29.6350,-93.6417,2.0,29.3245,11111222 
TABS,ioos:station:wmo:42051:1,2017-11-06T09:00:00Z,29.6350,-93.6417,2.0,29.2882,11111222 
TABS,ioos:station:wmo:42051:1,2017-11-06T09:30:00Z,29.6350,-93.6417,2.0,29.2666,11111222 
TABS,ioos:station:wmo:42051:1,2017-11-06T10:00:00Z,29.6350,-93.6417,2.0,29.1384,11111222 
TABS,ioos:station:wmo:42051:1,2017-11-06T10:30:00Z,29.6350,-93.6417,2.0,28.9234,11111222 
TABS,ioos:station:wmo:42051:1,2017-11-06T11:00:00Z,29.6350,-93.6417,2.0,28.6166,11111222 
TABS,ioos:station:wmo:42051:1,2017-11-06T11:30:00Z,29.6350,-93.6417,2.0,28.7034,11111222 
TABS,ioos:station:wmo:42051:1,2017-11-06T12:00:00Z,29.6350,-93.6417,2.0,28.3287,11111222 
TABS,ioos:station:wmo:42051:1,2017-11-06T12:30:00Z,29.6350,-93.6417,2.0,28.2592,11111222 